Weather History for Wildwood, NJ

Change the Weather History Date:

Tuesday, December 25, 2012

  Actual Average Record
Temperature  
Mean Temperature 40 °F -  
Max Temperature 48 °F 41 °F 60 °F (2008)
Min Temperature 33 °F 29 °F 21 °F (1998)
Degree Days  
Heating Degree Days 24    
Moisture  
Dew Point 34 °F    
Average Humidity 80    
Maximum Humidity 87    
Minimum Humidity 66    
Precipitation  
Precipitation 0.02 in - - ()
Sea Level Pressure  
Sea Level Pressure 30.08 in    
Wind  
Wind Speed 7 mph (NW)    
Max Wind Speed 13 mph    
Max Gust Speed 20 mph    
Visibility 9 miles    
Events      
Averages and records for this station are not official NWS values.
T = Trace of Precipitation, MM = Missing Value Source: NWS Daily Summary

Daily Weather History Graph

Daily Weather History Graph

Search for Another Location

Airport:

Trip Planner

Search our weather history database for the weather conditions in past years. The results will help you decide how hot, cold, wet, or windy it might be!

Date:

Astronomy

Dec. 25, 2012 Rise Set
Actual Time 7:16 AM EST 4:43 PM EST
Civil Twilight 6:46 AM EST 5:13 PM EST
Nautical Twilight 6:13 AM EST 5:46 PM EST
Astronomical Twilight 5:40 AM EST 6:19 PM EST
Moon 2:49 PM EST (12/25) 4:47 AM EST (12/25)
Length of Visible Light 10h 26m
Length of Day
9h 26m
Waxing Gibbous, 93% of the Moon is Illuminated
Dec 25
Waxing Gibbous
Dec 28
Full
Jan 4
Last Quarter
Jan 11
New
Jan 18
First Quarter

Hourly Weather History & Observations

Time (EST) Temp. Windchill Dew Point Humidity Pressure Visibility Wind Dir Wind Speed Gust Speed Precip Events Conditions
12:15 AM 48.2 °F - 42.8 °F 82% 29.88 in 10.0 mi SW 6.9 mph - N/A   Overcast
12:35 AM 48.2 °F - 42.8 °F 82% 29.88 in 10.0 mi West 5.8 mph - N/A   Overcast
12:55 AM 46.4 °F 44.3 °F 41.0 °F 81% 29.88 in 10.0 mi West 4.6 mph - N/A   Overcast
1:15 AM 44.6 °F 42.2 °F 41.0 °F 87% 29.89 in 10.0 mi NW 4.6 mph - N/A   Mostly Cloudy
1:35 AM 44.6 °F - 39.2 °F 81% 29.89 in 10.0 mi Calm Calm - N/A   Mostly Cloudy
1:55 AM 42.8 °F - 39.2 °F 87% 29.90 in 9.0 mi Calm Calm - N/A   Overcast
2:15 AM 42.8 °F 41.1 °F 39.2 °F 87% 29.90 in 10.0 mi WNW 3.5 mph - N/A   Overcast
2:35 AM 42.8 °F 41.1 °F 39.2 °F 87% 29.91 in 10.0 mi West 3.5 mph - N/A   Overcast
2:55 AM 42.8 °F 38.6 °F 39.2 °F 87% 29.92 in 10.0 mi West 6.9 mph - N/A   Overcast
3:15 AM 42.8 °F 39.3 °F 39.2 °F 87% 29.92 in 10.0 mi West 5.8 mph - N/A   Overcast
3:35 AM 42.8 °F 38.0 °F 39.2 °F 87% 29.93 in 10.0 mi West 8.1 mph - N/A   Overcast
3:55 AM 42.8 °F 38.0 °F 39.2 °F 87% 29.94 in 7.0 mi West 8.1 mph - N/A   Overcast
4:15 AM 42.8 °F 37.5 °F 37.4 °F 81% 29.94 in 7.0 mi West 9.2 mph - N/A   Overcast
4:35 AM 42.8 °F 37.5 °F 37.4 °F 81% 29.94 in 8.0 mi WNW 9.2 mph 16.1 mph N/A   Overcast
4:55 AM 41.0 °F 34.7 °F 37.4 °F 87% 29.95 in 9.0 mi WNW 10.4 mph 17.3 mph N/A   Overcast
5:15 AM 41.0 °F 34.7 °F 37.4 °F 87% 29.96 in 9.0 mi WNW 10.4 mph - N/A   Overcast
5:35 AM 39.2 °F 32.5 °F 35.6 °F 87% 29.97 in 10.0 mi WNW 10.4 mph - N/A   Scattered Clouds
5:55 AM 39.2 °F 32.0 °F 35.6 °F 87% 29.98 in 10.0 mi WNW 11.5 mph 18.4 mph N/A   Scattered Clouds
6:15 AM 41.0 °F 34.7 °F 35.6 °F 81% 30.00 in 10.0 mi WNW 10.4 mph - N/A   Overcast
6:35 AM 39.2 °F 31.6 °F 35.6 °F 87% 30.01 in 10.0 mi WNW 12.7 mph 16.1 mph N/A   Overcast
6:55 AM 39.2 °F 32.5 °F 33.8 °F 81% 30.01 in 10.0 mi NW 10.4 mph 19.6 mph N/A   Overcast
7:15 AM 39.2 °F 32.5 °F 33.8 °F 81% 30.02 in 10.0 mi WNW 10.4 mph - N/A   Overcast
7:35 AM 39.2 °F 33.6 °F 33.8 °F 81% 30.03 in 10.0 mi NW 8.1 mph 16.1 mph N/A   Mostly Cloudy
7:55 AM 39.2 °F 33.6 °F 33.8 °F 81% 30.04 in 10.0 mi WNW 8.1 mph - N/A   Mostly Cloudy
8:15 AM 39.2 °F 33.0 °F 33.8 °F 81% 30.05 in 10.0 mi NW 9.2 mph 18.4 mph N/A   Scattered Clouds
8:35 AM 39.2 °F 34.2 °F 33.8 °F 81% 30.06 in 8.0 mi NW 6.9 mph - N/A   Partly Cloudy
8:55 AM 39.2 °F 33.0 °F 33.8 °F 81% 30.08 in 8.0 mi WNW 9.2 mph - N/A   Clear
9:15 AM 39.2 °F 32.5 °F 33.8 °F 81% 30.08 in 9.0 mi NW 10.4 mph 16.1 mph N/A   Partly Cloudy
9:35 AM 39.2 °F 31.6 °F 33.8 °F 81% 30.10 in 10.0 mi WNW 12.7 mph 17.3 mph N/A   Partly Cloudy
9:55 AM 39.2 °F 32.5 °F 33.8 °F 81% 30.11 in 7.0 mi WNW 10.4 mph 16.1 mph N/A   Mostly Cloudy
10:15 AM 39.2 °F 32.5 °F 33.8 °F 81% 30.12 in 5.0 mi WNW 10.4 mph 17.3 mph N/A   Overcast
10:35 AM 39.2 °F 33.6 °F 33.8 °F 81% 30.12 in 6.0 mi WNW 8.1 mph 16.1 mph N/A   Overcast
10:55 AM 39.2 °F 32.5 °F 33.8 °F 81% 30.11 in 9.0 mi WNW 10.4 mph 16.1 mph N/A   Overcast
11:15 AM 39.2 °F 33.0 °F 33.8 °F 81% 30.10 in 9.0 mi NW 9.2 mph - N/A   Overcast
11:35 AM 39.2 °F 33.0 °F 33.8 °F 81% 30.10 in 8.0 mi NW 9.2 mph - N/A   Overcast
11:55 AM 39.2 °F 33.6 °F 33.8 °F 81% 30.09 in 8.0 mi NW 8.1 mph - N/A   Overcast
12:15 PM 39.2 °F 33.0 °F 33.8 °F 81% 30.09 in 10.0 mi NW 9.2 mph - N/A   Overcast
12:35 PM 39.2 °F 32.5 °F 33.8 °F 81% 30.11 in 10.0 mi NW 10.4 mph - N/A   Overcast
12:55 PM 41.0 °F 35.8 °F 33.8 °F 76% 30.10 in 10.0 mi NW 8.1 mph - N/A   Overcast
1:15 PM 42.8 °F 37.0 °F 33.8 °F 70% 30.11 in 10.0 mi NW 10.4 mph 16.1 mph N/A   Overcast
1:35 PM 41.0 °F 34.7 °F 33.8 °F 76% 30.10 in 10.0 mi NW 10.4 mph 16.1 mph N/A   Mostly Cloudy
1:55 PM 41.0 °F 35.8 °F 33.8 °F 76% 30.09 in 10.0 mi NW 8.1 mph - N/A   Partly Cloudy
2:15 PM 41.0 °F 35.8 °F 33.8 °F 76% 30.09 in 10.0 mi NW 8.1 mph 18.4 mph N/A   Partly Cloudy
2:35 PM 42.8 °F 38.0 °F 33.8 °F 70% 30.10 in 10.0 mi NW 8.1 mph - N/A   Clear
3:15 PM 42.8 °F 37.0 °F 32.0 °F 66% 30.12 in 10.0 mi North 10.4 mph - N/A   Clear
3:35 PM 41.0 °F 35.8 °F 32.0 °F 70% 30.12 in 10.0 mi NNW 8.1 mph - N/A   Clear
3:55 PM 41.0 °F 34.7 °F 32.0 °F 70% 30.13 in 10.0 mi North 10.4 mph - N/A   Clear
4:15 PM 39.2 °F 34.2 °F 32.0 °F 75% 30.14 in 10.0 mi NNW 6.9 mph - N/A   Clear
4:35 PM 39.2 °F 35.9 °F 30.2 °F 70% 30.15 in 10.0 mi North 4.6 mph - N/A   Clear
4:55 PM 39.2 °F 35.0 °F 30.2 °F 70% 30.16 in 10.0 mi North 5.8 mph - N/A   Clear
5:15 PM 37.4 °F 32.8 °F 30.2 °F 75% 30.16 in 10.0 mi North 5.8 mph - N/A   Clear
5:35 PM 37.4 °F 32.8 °F 30.2 °F 75% 30.16 in 10.0 mi NNW 5.8 mph - N/A   Clear
5:55 PM 37.4 °F 32.8 °F 30.2 °F 75% 30.18 in 10.0 mi NNW 5.8 mph - N/A   Clear
6:15 PM 37.4 °F 34.9 °F 30.2 °F 75% 30.18 in 10.0 mi North 3.5 mph - N/A   Clear
6:35 PM 37.4 °F 34.9 °F 30.2 °F 75% 30.19 in 10.0 mi North 3.5 mph - N/A   Clear
6:55 PM 37.4 °F - 30.2 °F 75% 30.20 in 10.0 mi Calm Calm - N/A   Clear
7:15 PM 35.6 °F 32.8 °F 30.2 °F 81% 30.20 in - North 3.5 mph - N/A   Clear
7:35 PM 37.4 °F - 30.2 °F 75% 30.20 in - Calm Calm - N/A   Clear
7:55 PM 35.6 °F - 30.2 °F 81% 30.21 in - Calm Calm - N/A   Clear
8:15 PM 35.6 °F 32.8 °F 30.2 °F 81% 30.21 in - North 3.5 mph - N/A   Clear
8:35 PM 35.6 °F 32.8 °F 30.2 °F 81% 30.23 in - North 3.5 mph - N/A   Clear
8:55 PM 33.8 °F 30.8 °F 28.4 °F 81% 30.23 in - North 3.5 mph - N/A   Clear
9:15 PM 33.8 °F 29.6 °F 28.4 °F 81% 30.23 in - North 4.6 mph - N/A   Clear
9:35 PM 33.8 °F 28.6 °F 28.4 °F 81% 30.24 in - NNE 5.8 mph - N/A   Clear
9:55 PM 33.8 °F 29.6 °F 28.4 °F 81% 30.25 in - North 4.6 mph - N/A   Clear
10:15 PM 33.8 °F 29.6 °F 26.6 °F 75% 30.24 in - North 4.6 mph - N/A   Clear
10:35 PM 33.8 °F 30.8 °F 26.6 °F 75% 30.25 in - North 3.5 mph - N/A   Clear
10:55 PM 33.8 °F 29.6 °F 26.6 °F 75% 30.25 in - NNE 4.6 mph - N/A   Mostly Cloudy
11:15 PM 33.8 °F 29.6 °F 28.4 °F 81% 30.26 in - North 4.6 mph - N/A   Mostly Cloudy
11:35 PM 33.8 °F 28.6 °F 28.4 °F 81% 30.24 in - North 5.8 mph - N/A   Mostly Cloudy
11:55 PM 33.8 °F 29.6 °F 28.4 °F 81% 30.24 in - North 4.6 mph - N/A   Overcast